EHI
0 0 0 0 0 0 0 0 0 0 0 0 0 0 0 0 0 0 0 0 0 0 0 0 0 0 0 0 0 0 0 0 0 0 0 0 0 0 0 0 0 0 0
0 0 0 0 0 0 0 0 0 0 0 0 0 0 0 0 0 0 0 0 0 0 0 0 0 0 0 0 0 0 0 0 0 0 0 0 0 0 0 0 0 0 0
0 0 0 0 0 0 0 0 0 0 0 0 0 0 0 0 0 0 0 0 0 0 0 0 0 0 0 0 0 0 0 0 0 0 0 0 0 0 0 0 0 0 0
0 0 0 0 0 0 0 0 0 0 0 0 0 0 0 0 0 0 0 0 0 0 0 0 0 0 0 0 0 0 0 0 0 0 0 0 0 0 0 0 0 0 0
0 0 0 0 0 0 0 0 0 0 0 0 0 0 0 0 0 0 0 0 0 0 0 0 0 0 0 0 0 0 0 0 0 0 0 0 0 0 0 0 0 0 0
0 0 0 0 0 0 0 0 0 0 0 0 0 0 0 0 0 0 0 0 0 0 0 0 0 0 0 0 0 0 0 0 0 0 0 0 0 0 0 0 0 0 0
0 0 0 0 0 0 0 0 0 0 0 0 0 0 0 0 0 0 0 0 0 0 0 0 0 0 0 0 0 0 0 0 0 0 0 0 0 0 0 0 0 0 0
0 0 0 0 0 0 0 0 0 0 0 0 0 0 0 0 0 0 0 0 0 0 0 0 0 0 0 0 0 0 0 0 0 0 0 0 0 0 0 0 0 0 0
0 0 0 0 0 0 0 0 0 0 0 0 0 0 0 0 0 0 0 0 0 0 0 0 0 0 0 0 0 0 0 0 0 0 0 0 0 0 0 0 0 0 0
0 0 0 0 0 0 0 0 0 0 0 0 0 0 0 0 0 0 0 0 0 0 0 0 0 0 0 0 0 0 0 0 0 0 0 0 0 0 0 0 0 0 0
0 0 0 0 0 0 0 0 0 0 0 0 0 0 0 0 0 0 0 0 0 0 0 0 0 0 0 0 0 0 0 0 0 0 0 0 0 0 0 0 0 0 0
0 0 0 0 0 0 0 0 0 0 0 0 0 0 0 0 0 0 0 0 0 0 0 0 0 0 0 0 0 0 0 0 0 0 0 0 0 0 0 0 0 0 0
0 0 0 0 0 0 0 0 0 0 0 0 0 0 0 0 0 0 0 0 0 0 0 0 0 0 0 0 0 0 0 0 0 0 0 0 0 0 0 0 0 0 0
0 0 0 0 0 0 0 0 0 0 0 0 0 0 0 0 0 0 0 0 0 0 0 0 0 0 0 0 0 0 0 0 0 0 0 0 0 0 0 0 0 0 0
0 0 0 0 0 0 0 0 0 0 0 0 0 0 0 0 0 0 0 0 0 0 0 0 0 0 0 0 0 0 0 0 0 0 0 0 0 0 0 0 0 0 0
0 0 0 0 0 0 0 0 0 0 0 0 0 0 0 0 0 0 0 0 0 0 0 0 0 0 0 0 0 0 0 0 0 0 0 0 0 0 0 0 0 0 0
0 0 0 0 0 0 0 0 0 0 0 0 0 0 0 0 0 0 0 0 0 0 0 0 0 0 0 0 0 0 0 0 0 0 0 0 0 0 0 0 0 0 0
0 0 0 0 0 0 0 0 0 0 0 0 0 0 0 0 0 0 0 0 0 0 0 0 0 0 0 0 0 0 0 0 0 0 0 0 0 0 0 0 0 0 0
0 0 0 0 0 0 0 0 0 0 0 0 0 0 0 0 0 0 0 0 0 0 0 0 0 0 0 0 0 0 0 0 0 0 0 0 0 0 0 0 0 0 0
0 0 0 0 0 0 0 0 0 0 0 0 0 0 0 0 0 0 0 0 0 0 0 0 0 0 0 0 0 0 0 0 0 0 0 0 0 0 0 0 0 0 0
0 0 0 0 0 0 0 0 0 0 0 0 0 0 0 0 0 0 0 0 0 0 0 0 0 0 0 0 0 0 0 0 0 0 0 0 0 0 0 0 0 0 0
0 0 0 0 0 0 0 0 0 0 0 0 0 0 0 0 0 0 0 0 0 0 0 0 0 0 0 0 0 0 0 0 0 0 0 0 0 0 0 0 0 0 0
0 0 0 0 0 0 0 0 0 0 0 0 0 0 0 0 0 0 0 0 0 0 0 0 0 0 0 0 0 0 0 0 0 0 0 0 0 0 0 0 0 0 0
0 0 0 0 0 0 0 0 0 0 0 0 0 0 0 0 0 0 0 0 0 0 0 0 0 0 0 0 0 0 0 0 0 0 0 0 0 0 0 0 0 0 0
0 0 0 0 0 0 0 0 0 0 0 0 0 0 0 0 0 0 0 0 0 0 0 0 0 0 0 0 0 0 0 0 0 0 0 0 0 0 0 0 0 0 0
0 0 0 0 0 0 0 0 0 0 0 0 0 0 0 0 0 0 0 0 0 0 0 0 0 0 0 0 0 0 0 0 0 0 0 0 0 0 0 0 0 0 0
Wind_Speed
5 3 4 4 4 4 5 5 5 4 4 2 2 2 1 1 2 2 3 3 3 3 3 3 3 3 3 3 3 3 4 3 2 3 3 4 4 4 4 4 4 5 5
4 4 5 5 6 6 6 5 5 5 4 3 2 2 2 1 1 1 2 3 3 2 3 3 3 3 3 4 3 3 2 2 3 2 2 2 4 4 4 4 4 4 4
8 6 7 7 6 7 7 7 6 6 5 4 3 3 3 2 2 2 1 2 2 2 3 3 3 3 3 3 2 2 3 2 2 2 3 3 1 2 3 3 3 4 3
7 7 7 8 8 8 6 6 6 5 5 5 4 4 3 2 1 1 0 1 2 2 2 3 3 3 2 2 2 2 2 3 1 2 2 2 3 2 1 3 3 3 3
8 8 9 9 8 7 6 6 5 5 5 5 5 4 3 2 1 1 1 1 2 2 2 2 3 3 2 2 2 3 3 2 2 1 1 2 2 2 2 1 3 3 3
7 7 6 6 5 5 5 5 6 5 5 5 5 5 5 4 3 1 1 0 1 1 1 2 2 2 2 2 2 2 3 2 2 1 1 2 2 1 2 1 1 2 3
6 6 6 6 6 6 7 6 7 6 5 6 5 6 6 5 5 3 3 2 1 0 0 1 1 1 1 2 2 2 2 2 2 1 1 1 1 2 2 2 1 1 2
7 7 8 8 7 8 7 7 7 6 6 6 6 5 5 4 3 4 3 3 2 2 1 2 2 1 2 2 2 2 1 1 2 2 1 1 0 1 2 2 2 1 2
7 7 6 7 7 7 8 9 8 7 6 6 5 5 5 4 4 4 3 2 2 2 2 2 2 1 2 2 2 2 1 2 1 1 1 1 0 1 1 2 2 3 0
6 5 5 6 6 6 6 6 6 6 5 5 5 4 4 4 4 3 4 3 3 2 3 2 2 2 2 2 2 2 1 2 1 1 2 1 0 1 1 1 1 2 3
6 6 5 5 4 4 5 5 5 5 4 5 4 4 4 3 3 3 4 4 3 3 3 3 3 2 2 2 2 2 2 2 1 1 1 1 1 1 1 1 1 1 2
5 5 4 4 4 4 5 5 5 5 5 5 5 4 4 4 3 3 3 3 3 3 3 3 3 3 2 2 3 2 2 2 1 1 1 0 1 1 0 1 1 1 1
5 4 4 4 5 5 5 5 5 6 5 5 5 4 4 4 4 3 3 3 3 3 2 3 3 3 3 3 3 3 2 2 2 1 1 1 1 0 0 0 0 0 0
5 5 5 4 5 5 5 6 5 5 5 5 5 5 5 5 4 4 3 3 3 3 3 3 3 3 3 3 3 3 2 2 1 1 1 1 2 2 1 1 1 1 1
5 5 6 5 5 4 4 5 5 5 5 5 5 5 4 4 3 3 3 3 3 3 3 3 2 2 2 2 3 3 3 2 1 0 1 1 2 2 2 1 1 2 1
5 5 5 5 5 5 5 5 5 5 5 6 5 4 4 4 4 4 3 3 3 2 3 2 2 2 2 3 6 5 3 3 3 2 1 1 1 2 2 2 2 2 2
4 4 5 6 6 6 6 6 5 5 5 5 5 4 5 4 4 4 4 4 4 3 3 2 3 3 3 4 5 6 4 3 3 2 1 1 1 1 1 1 1 1 2
4 4 4 4 4 4 4 4 4 5 5 5 4 4 5 5 4 4 4 4 3 3 3 3 3 2 3 4 5 6 3 2 2 2 2 2 2 1 1 1 1 1 2
4 4 4 4 4 4 4 5 4 4 4 4 4 5 5 5 5 4 4 3 3 3 3 2 3 3 3 3 5 5 3 2 1 1 1 2 2 2 1 1 1 2 3
2 2 2 3 3 3 4 5 4 4 5 5 5 5 5 6 6 5 4 3 3 3 3 2 2 3 3 3 5 6 3 2 1 1 1 3 2 2 2 2 2 2 3
2 3 4 3 2 3 4 4 4 4 5 4 4 4 5 5 5 4 3 3 3 3 2 2 1 1 2 3 4 5 3 3 2 2 1 2 3 3 2 2 2 4 3
3 3 3 2 2 3 4 4 3 3 3 4 4 4 4 4 4 4 3 3 3 3 2 1 0 1 1 2 3 4 4 4 3 2 2 2 2 2 2 2 3 3 2
3 3 3 3 2 2 4 4 2 2 3 4 4 3 3 3 3 4 4 3 3 2 2 1 1 1 1 1 2 3 4 4 2 2 2 2 1 1 1 1 2 1 0
3 3 4 4 2 1 2 2 2 3 4 4 3 3 4 3 3 3 3 3 3 3 2 2 2 1 1 1 1 1 1 2 2 1 1 0 1 0 1 2 2 0 1
2 3 4 4 2 2 2 1 2 4 5 4 3 3 3 3 3 2 2 3 3 3 4 3 3 2 2 3 3 2 2 2 2 1 1 1 1 1 1 1 1 1 0
3 3 3 3 2 2 2 1 2 4 5 4 3 3 3 3 3 3 2 2 1 2 2 3 2 1 2 1 2 2 2 2 3 2 1 0 1 1 1 1 1 1 1
Wind_Direction
227 202 184 170 161 159 156 155 149 152 142 125 114 101 76 40 31 28 41 56 72 84 86 85 72 70 79 80 85 88 70 49 36 68 43 24 34 44 33 28 32 27 23
205 193 184 177 178 177 175 170 167 166 167 151 137 132 127 102 75 28 37 43 63 76 92 93 88 81 87 76 72 85 89 47 32 90 85 26 1 7 21 19 29 19 14
204 196 186 188 185 186 186 183 181 174 171 150 114 91 69 49 36 22 15 14 46 66 82 95 97 86 88 92 81 87 106 102 38 54 119 127 207 322 344 8 16 10 15
204 193 187 190 196 199 188 184 182 176 169 154 149 147 148 160 199 185 45 26 42 66 85 100 101 96 90 92 86 86 99 116 96 51 54 102 146 137 343 336 348 3 16
203 196 195 197 199 193 184 183 176 176 170 166 165 155 151 160 144 108 88 49 32 41 81 103 105 102 97 99 91 85 83 96 119 122 106 82 68 88 129 311 328 343 342
202 198 196 190 189 185 181 176 174 183 176 174 172 171 170 164 152 152 150 64 24 20 64 110 111 114 110 108 105 98 95 93 97 102 116 135 132 141 131 159 294 314 313
191 187 184 185 187 186 188 183 181 189 184 181 185 187 183 178 182 185 182 182 202 232 213 134 136 131 130 121 112 99 95 104 109 117 121 135 148 150 144 140 176 318 312
189 188 191 190 191 192 190 185 188 193 186 188 193 189 185 183 190 188 183 191 199 206 182 150 146 143 136 126 118 101 101 102 106 104 112 105 107 142 152 154 143 52 337
190 188 188 189 193 193 192 189 188 191 190 190 185 186 188 187 189 185 182 185 197 192 167 150 142 138 134 133 125 111 110 106 100 108 109 102 78 117 144 151 153 146 156
190 186 187 191 194 194 188 180 181 187 185 181 182 184 186 187 179 166 176 183 186 171 156 148 142 142 133 128 122 114 111 105 85 103 97 82 75 84 93 131 141 146 157
187 184 186 186 183 174 166 168 175 175 172 175 173 168 175 171 162 170 183 181 172 167 167 163 156 158 149 141 135 133 125 114 85 66 92 65 78 87 77 103 114 127 141
182 176 171 163 161 168 169 173 175 175 179 172 163 168 163 156 163 181 184 170 167 168 169 159 159 168 162 154 155 160 148 147 141 136 105 36 87 73 73 105 128 157 170
164 159 157 169 177 179 180 179 181 183 176 161 159 161 164 167 178 185 177 166 163 157 155 155 168 173 167 166 171 165 163 168 171 175 172 205 143 188 222 144 141 176 123
168 168 175 184 186 185 184 184 187 180 170 161 163 172 182 183 183 177 168 167 160 153 162 171 176 175 169 169 171 161 157 160 161 181 195 207 199 212 208 190 196 149 99
174 179 184 186 184 185 186 185 183 177 170 164 175 191 187 173 166 165 165 159 155 162 165 159 165 169 163 173 165 164 164 163 161 201 239 225 221 227 212 198 191 160 146
182 183 185 185 189 190 191 186 183 180 169 175 190 185 164 163 170 171 161 153 158 159 149 159 166 167 187 181 172 165 167 167 169 196 252 269 273 276 263 241 199 175 176
190 188 193 195 199 198 190 189 186 169 168 180 182 173 168 172 178 168 156 166 172 163 162 176 171 183 206 186 176 173 162 167 181 194 214 276 308 283 277 315 318 285 269
195 195 196 197 196 184 175 171 156 158 169 176 178 174 168 169 164 157 167 177 167 167 174 181 189 193 217 197 180 169 153 151 179 194 198 210 265 259 201 150 22 316 302
199 193 187 179 171 169 163 147 146 155 165 178 181 176 167 162 160 168 179 175 162 171 177 179 183 195 231 201 181 160 149 157 203 217 207 201 229 255 218 139 205 304 309
155 147 136 128 136 153 146 143 153 158 184 193 185 172 164 165 173 180 174 161 162 177 169 167 183 196 219 202 185 169 156 170 212 241 251 237 234 255 234 178 185 254 280
129 121 121 124 141 142 135 146 154 187 202 183 160 157 162 168 169 160 153 147 151 146 148 160 191 212 225 218 193 179 172 186 194 211 244 249 241 247 246 214 203 236 255
99 114 122 124 117 126 133 143 181 205 168 148 143 150 156 159 150 142 138 136 145 143 148 144 173 270 257 226 208 198 194 183 178 209 229 237 236 254 271 250 235 253 278
122 122 130 122 100 119 137 150 193 162 139 132 138 142 137 140 140 141 141 134 141 146 158 164 201 264 278 263 230 212 207 198 192 212 214 222 248 277 296 294 280 290 151
130 125 124 121 113 106 124 154 159 143 132 131 133 129 131 128 126 130 139 143 156 164 171 183 209 241 276 261 232 207 199 197 211 226 201 36 6 6 332 342 339 341 186
123 126 135 139 143 126 106 113 130 127 125 126 124 121 125 130 123 119 136 160 182 182 180 196 192 187 223 237 204 171 182 185 186 143 88 59 35 20 352 340 332 333 344
132 129 130 131 136 129 117 105 123 130 129 124 124 129 130 128 130 124 83 54 112 135 160 157 155 211 220 172 161 168 166 165 153 119 124 199 229 241 258 278 303 310 286